sat.trackr.live / text

‹ back to catalog

STARLINK-32818

NORAD 63036 · 2025-034H

PAYLOAD ACTIVE UNKNOWN

§ Identity

Operator
Country
US
Launch date
2025-02-18
Launch site
AFETR
Launch vehicle
Mass (kg)
RCS (m²)

Purposes: comms

External: N2YO · Heavens-Above · Gunter

§ Orbital elements

Epoch: 2026-05-25T00:40:15.305952Z

Period
94.10 min
Inclination
53.1551°
Eccentricity
0.0000959
Mean motion
15.30208072 rev/d
Perigee alt
474.5 km
Apogee alt
475.8 km
Semi-major
6,853.3 km
B*
6.0239e-4
RAAN
263.6079°
Arg perigee
85.8847°
Mean anomaly
274.2263°
Rev number
7,077

§ Raw data

STARLINK-328181 63036U 25034H   26145.02795493  .00017529  00000+0  60239-3 0  99952 63036  53.1551 263.6079 0000959  85.8847 274.2263 15.30208072 70771

JSON: /api/v1/satellites/63036 · /tle

For live sub-satellite position, see the globe view (requires WebGL).

§ Visibility from observer

Set your observer location to see the next 7 days of passes ≥ 10°. The values pass through the URL so the page stays shareable.

No JS? Fill the form by hand. The geolocation button needs JavaScript.